Flag for Netherlands Weather past 2 weeks in Ede, Netherlands

Now
50 °F

Cloudy.


Feels Like: 44 °F
Forecast: 37 / 61 °F
Wind: 18 mph from North

Location: Deelen


UV Index: 3 (Moderate)

Visibility: N/A


Pressure: 30.01 "Hg

Humidity: 62%

Dew point: 37 °F

Location of EdeLocation

Historic Weather in Ede

°F

Ede temperature yesterday

Maximum temperature yesterday: 63 °F (at 2:25 PM)
Minimum temperature yesterday: 41 °F (at 12:25 AM)
Average temperature yesterday: 51 °F

Past Weeks' High & Low Weather Summary

 TemperatureHumidityPressure
High73 °F (Apr 3, 4:25 PM)100% (Apr 5, 5:25 AM)30.45 "Hg (Apr 5, 5:25 AM)
Low27 °F (Apr 16, 6:55 AM)34% (Apr 17, 2:25 PM)29.59 "Hg (Apr 3, 4:25 PM)
Average51 °F75%30.05 "Hg
* Reported Apr 3 4:25 PM — Apr 18 4:55 PM, Ede, Weather by CustomWeather, © 2014

Note: Actual official high and low records may vary slightly from our data, if they occured in-between our weather recording intervals... More about our weather records

Advertising

Historic Weather Conditions — Data for Previous 24 hours

 ConditionsComfort  
Time TempWeatherWind HumidityBarometerVisibility
4:55 PM
Apr 18
52 °FBroken clouds.18 mph58%29.98 "HgN/A
4:25 PM54 °FScattered clouds.17 mph54%29.98 "HgN/A
3:55 PM54 °FBroken clouds.16 mph51%29.98 "HgN/A
3:25 PM54 °FScattered clouds.16 mph51%29.98 "HgN/A
2:55 PM54 °FPassing clouds.13 mph58%29.98 "HgN/A
2:25 PM52 °FScattered clouds.15 mph58%29.98 "HgN/A
1:55 PM50 °FMostly cloudy.20 mph62%29.98 "HgN/A
1:25 PM50 °FBroken clouds.15 mph67%29.98 "HgN/A
12:59 PM50 °FBroken clouds.14 mph62%29.98 "HgN/A
12:55 PM50 °FBroken clouds.14 mph62%29.98 "HgN/A
12:25 PM52 °FBroken clouds.16 mph54%29.98 "HgN/A
12:04 PM50 °FScattered clouds.17 mph58%29.98 "HgN/A
11:55 AM50 °FBroken clouds.16 mph58%29.98 "HgN/A
11:25 AM48 °FBroken clouds.16 mph62%29.98 "HgN/A
10:55 AM48 °FPartly sunny.13 mph58%29.98 "HgN/A
10:25 AM46 °FCloudy.10 mph82%29.95 "HgN/A
9:55 AM46 °FScattered clouds.8 mph82%29.98 "HgN/A
9:25 AM45 °FPartly sunny.9 mph81%29.95 "HgN/A
8:55 AM46 °FBroken clouds.7 mph82%29.95 "HgN/A
8:25 AM43 °FSunny.5 mph93%29.95 "HgN/A
7:55 AM41 °FPassing clouds.3 mph93%29.95 "HgN/A
7:25 AM41 °FPassing clouds.5 mph93%29.95 "HgN/A
6:55 AM41 °FPassing clouds.5 mph93%29.92 "HgN/A
6:25 AM41 °FPartly cloudy.5 mph93%29.92 "HgN/A
5:55 AM43 °FPassing clouds.6 mph87%29.92 "HgN/A
5:25 AM41 °FPassing clouds.7 mph87%29.92 "HgN/A
4:55 AM43 °FPassing clouds.8 mph87%29.92 "HgN/A
4:25 AM43 °FPassing clouds.7 mph87%29.92 "HgN/A
3:55 AM41 °FPassing clouds.8 mph93%29.92 "HgN/A
3:25 AM41 °FClear.6 mph93%29.92 "HgN/A
2:55 AM41 °FPassing clouds.6 mph100%29.92 "HgN/A
2:25 AM45 °FPassing clouds.5 mph87%29.92 "HgN/A
1:55 AM46 °FOvercast.6 mph87%29.92 "HgN/A
1:25 AM48 °FMostly cloudy.8 mph87%29.92 "HgN/A
12:55 AM48 °FPartly cloudy.7 mph94%29.92 "HgN/A
12:25 AM48 °FMostly cloudy.7 mph94%29.92 "HgN/A
11:55 PM
Apr 17
48 °FPassing clouds.7 mph94%29.92 "HgN/A
11:25 PM48 °FPartly cloudy.6 mph94%29.92 "HgN/A
10:55 PM48 °FOvercast.7 mph94%29.92 "HgN/A
10:25 PM48 °FPassing clouds.6 mph100%29.95 "HgN/A
9:55 PM50 °FMostly cloudy.8 mph88%29.95 "HgN/A
9:25 PM52 °FBroken clouds.17 mph82%29.95 "HgN/A
8:55 PM55 °FBroken clouds.10 mph59%29.95 "HgN/A
8:25 PM55 °FPartly sunny.12 mph55%29.95 "HgN/A
7:55 PM57 °FPartly sunny.12 mph48%29.95 "HgN/A
6:55 PM59 °FOvercast.12 mph45%29.95 "HgN/A
6:25 PM59 °FMore clouds than sun.13 mph48%29.95 "HgN/A
5:55 PM61 °FOvercast.13 mph39%29.95 "HgN/A
5:25 PM61 °FPartly sunny.15 mph39%29.98 "HgN/A
Weather by CustomWeather, © 2014

See weather overview